Regional Weather Roundup
Issued by NWS

Home | Current Version | Previous Version | Graphics & Text | Print | Product List | Glossary Off
Versions: 1 2 3 4 5 6 7 8 9 10 11 12 13 14 15 16 17 18 19 20 21 22 23 24 25 26 27 28 29 30 31 32 33 34 35 36 37 38 39 40 41 42 43 44 45 46 47 48 49 50

000
ASUS43 KMKX 172120
RWRWI

WISCONSIN REGIONAL WEATHER ROUNDUP
NATIONAL WEATHER SERVICE MILWAUKEE/SULLIVAN WI
300 PM CST TUE JAN 17 2017

NOTE: "FAIR" INDICATES FEW OR NO CLOUDS BELOW 12,000 FEET WITH NO
SIGNIFICANT WEATHER AND/OR OBSTRUCTIONS TO VISIBILITY.

WIZ001-002-006>008-014>016-023>028-172200-
NORTHWEST WISCONSIN

CITY           SKY/WX    TMP DP  RH WIND       PRES   REMARKS
SUPERIOR ARPT  SUNNY     35  28  76 SW5       29.94R WCI  31
ASHLAND        NOT AVBL
HAYWARD        SUNNY     43  24  47 CALM      29.90R
SIREN          SUNNY     39  27  62 W9        29.94R WCI  32
CUMBERLAND     SUNNY     36  30  80 W5        29.92R WCI  32
RICE LAKE      MOSUNNY   38  31  73 W5        29.93R WCI  35
CHETEK         NOT AVBL
LADYSMITH      SUNNY     39  33  77 NW5       29.90S
EAU CLAIRE     CLOUDY    37  34  89 NW3       29.92R
MENOMONIE      CLOUDY    37  35  96 W6        29.93R WCI  32
NEW RICHMOND   SUNNY     35  30  82 NW5       29.96R WCI  31
OSCEOLA        SUNNY     37  29  71 W8        29.99R WCI  31
$$

WIZ003>005-009-010-017-018-172200-
NORTH CENTRAL WISCONSIN

CITY           SKY/WX    TMP DP  RH WIND       PRES   REMARKS
MANITOWISH WTR CLOUDY    40  22  47 CALM      29.86S
ARBOR VITAE    CLOUDY    41  32  70 N5        29.86R
WOODRUFF       CLOUDY    41  32  70 N5        29.86R
RHINELANDER    CLOUDY    41  32  70 VRB7      29.86R
EAGLE RIVER    CLOUDY    38  28  65 N6        29.85R WCI  34
LAND O LAKES   CLOUDY    40  26  56 N5        29.88R
PHILLIPS       SUNNY     42  32  67 NW5       29.87R
TOMAHAWK       CLOUDY    40  31  71 N6        29.87R
MEDFORD        CLOUDY    38  34  85 CALM      29.86R
MERRILL        CLOUDY    38  35  88 CALM        N/A
$$

WIZ029-030-035-036-043>047-172200-
CENTRAL WISCONSIN

CITY           SKY/WX    TMP DP  RH WIND       PRES   REMARKS
WAUSAU         CLOUDY    35  33  92 NW3       29.86R
MOSINEE        NOT AVBL
MARSHFIELD     CLOUDY    36  33  89 N5        29.86S FOG     WCI  32
STEVENS POINT  DRIZZLE   32  32 100 CALM      29.87R
WAUPACA        CLOUDY    36  34  92 CALM      29.87R FOG
WAUTOMA        LGT RAIN  35  34  96 MISG      29.87R
WISC RAPIDS    CLOUDY    35  35 100 N5        29.88R FOG     WCI  31
CAMP DOUGLAS   CLOUDY    35  34  97 NW8       29.88R FOG     WCI  28
$$

WIZ011>013-019>022-031-037>040-048>050-172200-
NORTHEAST WISCONSIN

CITY           SKY/WX    TMP DP  RH WIND       PRES   REMARKS
ANTIGO         CLOUDY    33  33 100 CALM      29.86R
SHAWANO        FOG       35  33  94 CALM      29.88R VSB 1
OCONTO         CLOUDY    33  33  99 N5        29.86R WCI  29
STURGEON BAY   FOG       34  33  96 N8        29.85R VSB 1/2 WCI  27
GREEN BAY      FOG       36  35  96 NW6       29.86R VSB 3/4 WCI  31
MANITOWOC      CLOUDY    35  34  96 NW9       29.84R FOG     WCI  28
APPLETON         N/A     34  34 100 NW7       29.84R FOG     WCI  28
CLINTONVILLE   FOG       34  32  93 N6        29.88R VSB 1/4 WCI  29
OSHKOSH        MIX PCPN  34  33  96 NW7       29.85R VSB 3/4 WCI  28
$$

WIZ032>034-041-042-053>061-172200-
SOUTHWEST WISCONSIN

CITY           SKY/WX    TMP DP  RH WIND       PRES   REMARKS
LA CROSSE      LGT SNOW  35  33  92 NW8       29.91R FOG     WCI  29
SPARTA         RAIN      33  33 100 W3        29.91R
VIROQUA        CLOUDY    33  33 100 NW7       29.89R WCI  27
BOSCOBEL       CLOUDY    36  33  89 SW5       29.91R WCI  32
PRAIRIE DU CHI CLOUDY    34  33  96 W7        29.92R WCI  28
PLATTEVILLE    CLOUDY    34  34 100 W9        29.90R WCI  27
$$

WIZ056-057-062-063-064-067-068-172200-
SOUTH CENTRAL WISCONSIN

CITY           SKY/WX    TMP DP  RH WIND       PRES   REMARKS
REEDSBURG      CLOUDY    33  33 100 W6        29.88R FOG     WCI  28
BARABOO/DELLS  CLOUDY    33  33  99 W6        29.88R WCI  28
LONE ROCK      CLOUDY    35  33  92 W7        29.91R FOG     WCI  29
MINERAL POINT  CLOUDY    34  34 100 W9        29.89R FOG     WCI  26
MADISON        CLOUDY    34  33  96 W6        29.88R FOG     WCI  29
MIDDLETON      CLOUDY    35  35 100 W6        29.88R WCI  30
WATERTOWN      CLOUDY    34  34 100 W5        29.86R FOG     WCI  30
MONROE         CLOUDY    34  34 100 W10       29.88R FOG     WCI  26
JANESVILLE     CLOUDY    36  36 100 W8        29.87R FOG     WCI  29
$$

WIZ051-052-058>065-066-070>072-172200-
SOUTHEAST WISCONSIN

CITY           SKY/WX    TMP DP  RH WIND       PRES   REMARKS
MILWAUKEE      CLOUDY    38  34  85 W7        29.85R WCI  33
WAUKESHA       CLOUDY    34  34 100 W9        29.86R FOG     WCI  26
MILWAUKEE/TIMM CLOUDY    36  34  93 W5        29.85R FOG     WCI  32
RACINE         CLOUDY    38  34  85 W7        29.87R WCI  33
KENOSHA        CLOUDY    37  35  92 W10       29.87R WCI  30
FOND DU LAC    CLOUDY    34  32  92 NW8       29.85R FOG     WCI  27
SHEBOYGAN      CLOUDY    34  33  96 NW9       29.84R FOG     WCI  27
WEST BEND      CLOUDY    34  34 100 W6        29.84R FOG     WCI  29
JUNEAU         FOG       33  32  99 W3        29.87R VSB 1/4
$$

LSZ147-162-172200-
LAKE SUPERIOR

STATION/POSITION TIME  TEMP    WIND        PRES    WAVE
                       AIR SEA DIR/SP/G            HT/PER
                 (UTC) (F)     (DEG/KT/KT) (MB)    (FT/S)
DEVILS ISLAND    2100   33     230/  5/  7 1014.4R
PORT WING        2040   33     280/  7/  8 1014.2R
SAXON HARBOR     2040   37      30/  2/  2 1013.2S
$$

LMZ867-665-643>646-172200-
LAKE MICHIGAN

STATION/POSITION TIME  TEMP    WIND        PRES    WAVE
                       AIR SEA DIR/SP/G            HT/PER
                 (UTC) (F)     (DEG/KT/KT) (MB)    (FT/S)
NORTHPORT PIER   2040   34      40/ 10/ 12 1010.8R
SISTER BAY       2020   35      30/  7/ 10   N/A
KEWAUNEE LAKESHO 2054   35     310/  5/  7 1010.1R
SHEBOYGAN LAKESH 2100   35     300/  7/  9 1010.8R
PORT WASHINGTON  2030   36     300/  4/  9 1011.2R
MILWAUKEE LAKESH 2100   38     270/ 10/ 11   N/A
KENOSHA   LAKESH 2100   38     260/  8/ 11 1011.9
$$

TC  - TEMPERATURE IN CELSIUS
VSB - VISIBILITY IN STATUTE MILES
WCI - WIND CHILL INDEX
HX  - HEAT INDEX





USA.gov is the U.S. government's official web portal to all federal, state and local government web resources and services.